Regional Weather Roundup
Issued by NWS

Home | Current Version | Previous Version | Text Only | Print | Product List | Glossary On
Versions: 1 2 3 4 5 6 7 8 9 10 11 12 13 14 15 16 17 18 19 20 21 22 23 24 25 26 27 28 29 30 31 32 33 34 35 36 37 38 39 40 41 42 43 44 45 46 47 48 49 50
243
ASUS45 KBOU 240807
RWRCO

WEATHER ROUNDUP FOR COLORADO
NATIONAL WEATHER SERVICE DENVER/BOULDER CO
200 AM MDT SUN JUL 24 2016

NOTE: "FAIR" INDICATES FEW OR NO CLOUDS BELOW 12000 FEET WITH NO
SIGNIFICANT WEATHER AND/OR OBSTRUCTIONS TO VISIBILITY.

COZ001>005-013-030-031-240900-
...NORTHWEST COLORADO...

CITY           SKY/WX    TMP DP  RH WIND       PRES   REMARKS
CRAIG          MOCLDY    72  33  24 SE9       30.21F
HAYDEN         MOCLDY    61  39  44 W5        30.30R
MEEKER         FAIR      65  46  50 N8        30.22F
MOUNT WERNER   NOT AVBL
STEAMBOAT SPGS FAIR      60  43  52 CALM      30.29R
WALDEN         FAIR      54  39  58 S5        30.37R
$$

COZ006>008-011-240900-
...WEST CENTRAL VALLEYS...

CITY           SKY/WX    TMP DP  RH WIND       PRES   REMARKS
GRAND JUNCTION FAIR      82  37  20 NE14G24   30.06F
MONTROSE       FAIR      67  43  41 SE6       30.18R
EAGLE          MOCLDY    64  43  45 SE5       30.30R
RIFLE          FAIR      70  41  34 S8        30.17F
DELTA          FAIR      70  48  46 CALM      30.13R
NUCLA          FAIR      68  41  37 CALM      30.22R
$$

COZ017>023-064>068-240900-
...SOUTHWEST COLORADO...

CITY           SKY/WX    TMP DP  RH WIND       PRES   REMARKS
DURANGO        FAIR      60  47  61 CALM      30.22F
CORTEZ         FAIR      61  47  59 E5        30.16S
PAGOSA SPRINGS FAIR      62  38  41 CALM      30.34R
TELLURIDE      FAIR      57  38  48 SE8       30.46S
WOLF CREEK PAS CLOUDY    54  32  43 E5        30.71S
$$

COZ009-010-012-014-032>034-037-058>063-240900-
...CENTRAL COLORADO...

CITY           SKY/WX    TMP DP  RH WIND       PRES   REMARKS
ASPEN          MOCLDY    57  44  62 NE7       30.37R
BUENA VISTA    FAIR      53  42  66 W5        30.40S
COPPER MTN     MOCLDY    59  32  36 S8        30.68S
BERTHOUD PASS  CLOUDY    48  34  57 CALM      30.71F
COTTONWOOD PAS FAIR      61  39  44 E3        30.54R
GUNNISON       FAIR      54  39  58 CALM      30.38R
KREMMLING      MOCLDY    54  48  82 CALM      30.36R
LEADVILLE      FAIR      47  36  65 E5        30.51S
MONARCH PASS   FAIR      46  39  76 NE18      30.77F
SALIDA         FAIR      62  46  55 CALM      30.43S
SUNLIGHT       FAIR      55  36  47 NW5       30.61F
WILKERSON PASS FAIR      50  37  62 S9G20     30.66F
$$

COZ069>075-240900-
...SAN LUIS VALLEY/SANGRE DE CRISTO MOUNTAINS...

CITY           SKY/WX    TMP DP  RH WIND       PRES   REMARKS
ALAMOSA        FAIR      66  47  50 SE10      30.32F
LA VETA PASS   FAIR      52  45  76 NE9       30.56R
SAGUACHE       MOCLDY    59  43  55 NW8       30.36R
$$

COZ035-036-038>040-240900-
...NORTHERN COLORADO FRONT RANGE...

CITY           SKY/WX    TMP DP  RH WIND       PRES   REMARKS
DENVER INTL AP FAIR      64  51  62 E8        30.17S
DMNS CITY PARK   N/A     67  53  59 S1        30.14F
AURORA         PTCLDY    68  51  54 S7        30.19R
FRONT RANGE AP NOT AVBL
ERIE MUNI ARPT FAIR      64  52  64 CALM      30.14F
BOULDER MUN AP FAIR      68  46  45 CALM      30.15F
CENTENNIAL     FAIR      70  48  45 S12       30.19F
BROOMFIELD     FAIR      68  50  52 NW12      30.18F
LONGMONT       FAIR      69  54  57 NW3       30.15F
$$

COZ041-046-047-076>085-087-088-240900-
...PIKES PEAK/PALMER DIVIDE AND SOUTHERN FOOTHILLS...

CITY           SKY/WX    TMP DP  RH WIND       PRES   REMARKS
COLO. SPRINGS  FAIR      66  51  58 S10       30.28R
A. F. ACADEMY  FAIR      64  49  58 S9        30.28S
SCHRIEVER AFB  NOT AVBL
ELLICOTT       FAIR     N/A N/A N/A SE8       30.23F
FALCON         NOT AVBL
FORT CARSON    FAIR      69  51  52 S7        30.24S
LIMON          FAIR      64  56  75 SE7       30.16F
MONUMENT HILL  FAIR      59  48  67 S13       30.31F
TRINIDAD       NOT AVBL
$$

COZ042>045-048>051-090-091-240900-
...NORTHEAST COLORADO...

CITY           SKY/WX    TMP DP  RH WIND       PRES   REMARKS
GREELEY ARPT   FAIR      63  55  77 N5        30.13F
AKRON          FAIR      67  56  67 NE5       30.08F
BURLINGTON     FAIR      74  54  49 S12       30.10S
WRAY           NOT AVBL
STERLING       FAIR      64  61  88 N7        30.04F
HOLYOKE        FAIR      79  54  41 W9        30.03R
FORT MORGAN    FAIR      67  50  54 N7        30.08F
$$

COZ086-089-092>099-240900-
...SOUTHEAST COLORADO...

CITY           SKY/WX    TMP DP  RH WIND       PRES   REMARKS
PUEBLO         FAIR      73  52  47 CALM      30.15F
LA JUNTA       FAIR      70  62  76 SW7       30.09R
LAMAR          FAIR      70  62  76 NE10      30.00F
SPRINGFIELD      N/A     72  55  55 E6        30.06F
$$




USA.gov is the U.S. government's official web portal to all federal, state and local government web resources and services.